[Iaude] MPEC J74: 2024 JQ1 [a=0.99,e=0.08,i=3.4,H=27.1]
    mpec at cfa.harvard.edu 
    mpec at cfa.harvard.edu
       
    Sun May  5 05:00:44 EDT 2024
    
    
  
M.P.E.C. 2024-J74                                   Issued 2024 May 5, 08:59 UT
     The Minor Planet Electronic Circulars contain information on unusual
         minor planets, routine data on comets and natural satellites,
         and occasional editorial announcements.  They are published
    on behalf of Division F of the International Astronomical Union by the
          Minor Planet Center, Smithsonian Astrophysical Observatory,
                          Cambridge, MA 02138, U.S.A.
			  
             Prepared using the Tamkin Foundation Computer Network
                              MPC at CFA.HARVARD.EDU
            URL https://www.minorplanetcenter.net/    ISSN 1523-6714
                                    2024 JQ1                                    
Observations:
     K24J01Q* C2024 05 02.47983416 15 56.938-13 29 14.88         20.55wXEJ074F51
     K24J01Q  C2024 05 02.49121416 15 54.494-13 30 07.84         20.41wXEJ074F51
     K24J01Q  C2024 05 02.50283316 15 52.002-13 31 02.08         21.02wXEJ074F51
     K24J01Q  C2024 05 02.51420016 15 49.556-13 31 54.53         20.99wXEJ074F51
     K24J01Q  C2024 05 02.61665016 15 28.382-13 39 38.92         20.76GVEJ074F52
     K24J01Q  C2024 05 02.61730116 15 28.257-13 39 41.77         20.45GVEJ074F52
     K24J01Q KC2024 05 02.97310716 15 07.46 -14 09 36.2          20.4 GXEJ074I93
     K24J01Q KC2024 05 02.99700016 15 02.91 -14 11 36.8          19.6 GXEJ074I93
     K24J01Q KC2024 05 03.00366916 15 01.62 -14 12 10.2          20.4 GXEJ074I93
     K24J01Q KC2024 05 03.01032816 15 00.36 -14 12 43.5          20.2 GXEJ074I93
     K24J01Q KC2024 05 03.47012 16 13 50.87 -14 50 31.0                VEJ074291
     K24J01Q KC2024 05 03.47932 16 13 48.99 -14 51 16.1          20.6 RVEJ074291
     K24J01Q KC2024 05 04.32285416 12 04.60 -16 07 49.7          20.8 GVEJ074H21
     K24J01Q KC2024 05 04.32570116 12 03.91 -16 08 05.4          21.0 GVEJ074H21
     K24J01Q KC2024 05 04.32854716 12 03.19 -16 08 21.0          20.7 GVEJ074H21
     K24J01Q KC2024 05 05.04052316 10 15.84 -17 18 23.9          20.5 GVEJ074L01
     K24J01Q IC2024 05 05.04250416 10 15.35 -17 18 36.2          20.8 GVEJ074L01
     K24J01Q IC2024 05 05.04448716 10 14.77 -17 18 47.6          20.5 GVEJ074L01
     K24J01Q IC2024 05 05.04658916 10 14.25 -17 18 59.9          20.5 GVEJ074L01
     K24J01Q KC2024 05 05.04825616 10 13.91 -17 19 10.5          20.7 GVEJ074L01
     K24J01Q 0B2024 05 05.06657 16 10 06.982-17 15 54.22         19.7 VZEJ074M49
     K24J01Q 0B2024 05 05.07529 16 10 04.548-17 16 45.34         19.6 VZEJ074M49
     K24J01Q 0B2024 05 05.08399 16 10 02.203-17 17 36.53         20.5 VZEJ074M49
Observer details:
291 LPL/Spacewatch II.  Observer T. H. Bressi.  1.8-m f/2.7 reflector + CCD.
F51 Pan-STARRS 1, Haleakala.  Observers J. Herman, T. Lowe, P. Minguez, A.
    Schultz, I. Smith.  Measurers K. Chambers, T. de Boer, J. Fairlamb, H.
    Gao, M. Huber, C.-C. Lin, E. Magnier, Y. Ramanjooloo, R. Wainscoat, R.
    Weryk.  1.8-m Ritchey-Chretien + CCD.
F52 Pan-STARRS 2, Haleakala.  Observers J. Herman, T. Lowe, P. Minguez, A.
    Schultz, I. Smith.  Measurers K. Chambers, T. de Boer, J. Fairlamb, H.
    Gao, M. Huber, C.-C. Lin, E. Magnier, Y. Ramanjooloo, R. Wainscoat, R.
    Weryk.  1.8-m Ritchey-Chretien + CCD.
H21 Astronomical Research Observatory, Westfield.  Observer R. Holmes.
    Measurers T. Linder, R. Holmes, L. Horn.  0.76-m f/3.0 astrograph + CCD.
I93 St Pardon de Conques.  Observer F. Losse.  0.40-m f/3.7 reflector + CCD.
L01 Visnjan Observatory, Tican.  Observer K. Korlevic.  1.0-m f/2.9 reflector
    + CCD.
M49 IAS Remote Observatory, Hakos.  Observers D. Husar, M. Junius.  Measurer
    D. Husar.  0.25-m f/4.5 reflector + CMO.
Orbital elements:
2024 JQ1                                                 Earth MOID = 0.0146 AU
Epoch 2024 Mar. 31.0 TT = JDT 2460400.5                 Veres                   
M 198.79269              (2000.0)            P               Q                  
n   1.00542766     Peri.  310.99208     +0.99840369     +0.03563787             
a   0.9868144      Node    47.01498     -0.01307465     +0.90056129             
e   0.0778978      Incl.    3.43401     -0.05494654     +0.43326585             
P   0.98           H   27.15          G   0.15           U   6                  
Residuals in seconds of arc
240502 F51  0.2-  0.1-    240503 I93  0.1-  0.1-    240505 L01  0.0   0.4-
240502 F51  0.1-  0.1+    240503 I93  0.5+  0.1-    240505 L01  1.0-  0.2+
240502 F51  0.1+  0.0     240503 291  0.5-  0.1-    240505 L01  0.8-  0.6+
240502 F51  0.2+  0.2+    240503 291  0.1+  0.0     240505 L01  0.4+  0.0
240502 F52  0.0   0.0     240504 H21  0.2+  0.2-    240505 M49  0.1-  0.3-
240502 F52  0.0   0.0     240504 H21  0.2+  0.0     240505 M49  0.3-  0.1+
240502 I93  0.1-  0.1-    240504 H21  0.3-  0.3+    240505 M49  0.3+  0.2+
240502 I93  0.2-  0.3-    240505 L01  0.2-  0.1-
Ephemeris:
2024 JQ1                 a,e,i = 0.99, 0.08, 3                   q = 0.9099
Date    TT    R. A. (2000) Decl.     Delta      r    Elong.  Phase     V
2024 04 05    16 16 00.5 -00 30 24   0.08647 1.0580   129.9    46.5    23.7
...
2024 04 20    16 24 09.4 -04 04 11   0.05562 1.0488   141.6    36.5    22.5
...
2024 04 28    16 21 31.3 -08 48 08   0.04059 1.0422   150.3    28.6    21.5
...
2024 05 04    16 12 51.8 -15 33 55   0.03021 1.0366   158.9    20.5    20.6
2024 05 05    16 10 24.8 -17 09 41   0.02859 1.0356   160.4    19.0    20.5
2024 05 06    16 07 32.6 -18 56 37   0.02701 1.0345   162.0    17.5    20.3
...
2024 05 12    15 34 54.6 -35 12 04   0.01879 1.0281   162.4    17.3    19.5
...
2024 05 20    11 26 51.6 -68 05 28   0.01465 1.0187   117.6    61.6    20.2
...
2024 06 04    05 44 44.2 -35 18 32   0.03060 0.9992    59.2   119.2    24.4
M. P. C. Staff               (C) Copyright 2024 MPC           M.P.E.C. 2024-J74
    
    
More information about the Iaude
mailing list